Regional Weather Roundup
Issued by NWS

Home | Current Version | Previous Version | Text Only | Print | Product List | Glossary Off
Versions: 1 2 3 4 5 6 7 8 9 10 11 12 13 14 15 16 17 18 19 20 21 22 23 24 25 26 27 28 29 30 31 32 33 34 35 36 37 38 39 40 41 42 43 44 45 46 47 48 49 50

000
ASUS43 KDMX 290408
RWRIA

WEATHER ROUNDUP FOR IOWA
NATIONAL WEATHER SERVICE DES MOINES IA
1100 PM CDT THU JUL 28 2016

NOTE: "FAIR" INDICATES FEW OR NO CLOUDS BELOW 12,000 FEET WITH NO
SIGNIFICANT WEATHER AND/OR OBSTRUCTIONS TO VISIBILITY.

* - THESE STATIONS ARE NOT NWS STATIONS...THUS NOT UNDER NWS
QUALITY CONTROL.  THEY ALSO DO NOT REPORT WEATHER SUCH
AS PRECIPITATION OR FOG.

IAZ001>003-012>014-020>022-031>034-043>046-290500-
   NORTHWEST IOWA

CITY           SKY/WX    TMP DP  RH WIND       PRES   REMARKS
CARROLL *      PTCLDY    64  63  94 NW3       30.03R
CHEROKEE *     MOCLDY    66  64  91 NE5       30.05R
DENISON *      PTCLDY    66  64  94 CALM      30.02R
LE MARS *      PTCLDY    68  63  83 N5        30.07R
SHELDON *      CLEAR     63  61  94 NE5       30.06R
SIOUX CITY     CLOUDY    73  62  68 NE6       30.04R
SPENCER        MOCLDY    65  61  87 NE7       30.06R
STORM LAKE *   PTCLDY    66  64  94 NE7       30.05S
$$

IAZ055>058-069>071-079>083-090>094-290500-
   SOUTHWEST IOWA

CITY           SKY/WX    TMP DP  RH WIND       PRES   REMARKS
ATLANTIC *     MOCLDY    68  66  94 CALM      30.04R
CLARINDA *       N/A     72  70  94 MISG      30.04R
COUNCIL BLFS * CLOUDY    72  63  73 NE6       30.04R
CRESTON *      CLOUDY    68  63  83 CALM      30.04R
HARLAN  *      PTCLDY    66  64  94 CALM      30.07R
LAMONI         CLEAR     66  64  93 NW6       30.01R
RED OAK *      CLOUDY    70  66  88 N3        30.03R
SHENANDOAH *   CLOUDY    70  68  94 N5        30.03R
$$

IAZ047>049-059>061-072>074-084-290500-
   CENTRAL IOWA

CITY           SKY/WX    TMP DP  RH WIND       PRES   REMARKS
AMES           CLOUDY    69  65  86 N7        30.00R
ANKENY *         N/A    N/A N/A N/A MISG        N/A
BOONE *          N/A     66  64  94 NE6       30.00R
CHARITON *       N/A    N/A N/A N/A MISG        N/A
DES MOINES     CLOUDY    72  64  76 N5        29.98R
GRINNELL*      CLEAR     66  64  91 NW5       29.98R
KNOXVILLE *    PTCLDY    66  63  88 NW6       29.97R
MARSHALLTOWN   CLEAR     64  63  96 N5        29.98R
NEWTON *       CLOUDY    68  66  94 N7G14     29.97R
PELLA *        CLOUDY    67  64  91 NW3       29.99R
PERRY *          N/A     66  65  96 NW3       30.01S
$$

IAZ004>006-015-016-023>025-035-036-290500-
   NORTH CENTRAL IOWA

CITY           SKY/WX    TMP DP  RH WIND       PRES   REMARKS
ALGONA *       CLOUDY    64  63  94 NE5       30.04R
ESTHERVILLE    CLOUDY    66  64  93 CALM      30.06R
FORT DODGE *   CLOUDY    64  63  94 N6        30.03R
MASON CITY     CLOUDY    63  61  93 N8        30.03S
FOREST CITY *  CLOUDY    64  61  88 N5        30.03R
IOWA FALLS *     N/A     66  62  89 N6        30.01S
$$

IAZ007>011-017>019-026>030-037>042-050>054-066-290500-
   NORTHEAST IOWA

CITY           SKY/WX    TMP DP  RH WIND       PRES   REMARKS
CEDAR RAPIDS   PTCLDY    68  67  96 N8        29.94S
CHARLES CITY * CLOUDY    66  64  94 NE5       30.00S
CLINTON *      MOCLDY    71  69  93 N6        29.93R
DECORAH *      CLOUDY    64  64 100 N9        29.98S FOG
DUBUQUE        CLOUDY    70  67  90 NE8       29.95S
MONTICELLO *   CLOUDY    68  66  94 N9        29.94S
OELWEIN *      CLOUDY    64  64 100 N8        29.98S
WATERLOO       CLOUDY    67  62  84 N8        29.96S
$$

IAZ064-065-067-068-078-290500-
   EAST CENTRAL IOWA

CITY           SKY/WX    TMP DP  RH WIND       PRES   REMARKS
DAVENPORT      CLEAR     68  66  93 W6        29.93R
IOWA CITY      CLEAR     71  66  84 N8        29.95S
MT. PLEASANT * CLEAR     72  67  83 NW3       29.94S
MUSCATINE *    PTCLDY    70  66  88 NW5       29.93S
QUAD CITIES    CLEAR     72  66  81 W6        29.91S
$$

IAZ062-063-075>077-085>089-095>099-290500-
   SOUTHEAST IOWA

CITY           SKY/WX    TMP DP  RH WIND       PRES   REMARKS
BURLINGTON     CLEAR     70  67  90 N7        29.93S
FAIRFIELD *    CLEAR     66  64  94 NW3       29.95R
KEOKUK *       CLEAR     70  66  88 CALM      29.94R
OTTUMWA        CLEAR     66  63  90 NW7       29.96R
WASHINGTON *   CLEAR     68  66  94 NW6       29.95S
$$

ABBREVIATIONS USED IN REMARKS
   TC - TEMPERATURES IN CELSIUS
  WCI - WIND CHILL INDEX
   HX - HEAT INDEX
  VSB - VISIBILITY
$$





USA.gov is the U.S. government's official web portal to all federal, state and local government web resources and services.